Temp
-2 -3 -3 -3 -3 -3 -4 -4 -4 -4 -4 -4 -4 -3 -3 -3 -3 -3 -2 -1 -1 -1 -1 -1 -0 -1 -1 -1 -1 -1 -1 -3 -3 2 2 2 3 5 6 6 8 8 9
-3 -4 -4 -4 -4 -4 -4 -4 -5 -5 -5 -5 -5 -4 -4 -4 -3 -3 -2 -2 -2 -2 -1 -2 -1 -1 -1 -2 -1 -1 -2 -2 -2 0 -0 -0 0 2 5 6 6 7 8
-3 -4 -4 -4 -4 -4 -5 -5 -5 -5 -6 -6 -6 -6 -5 -5 -4 -4 -4 -3 -3 -3 -3 -2 -2 -3 -2 -3 -3 -3 -2 -3 -3 -3 -2 -2 -1 -2 -1 2 5 7 7
-4 -4 -4 -4 -5 -5 -5 -5 -5 -6 -6 -6 -7 -6 -6 -6 -5 -5 -5 -5 -4 -5 -5 -4 -5 -5 -4 -3 -3 -3 -4 -5 -5 -4 -3 -4 -5 -2 -2 -1 0 3 7
-4 -4 -4 -5 -5 -6 -6 -6 -6 -6 -7 -7 -7 -7 -7 -7 -6 -6 -6 -7 -8 -8 -9 -8 -8 -8 -8 -8 -8 -8 -7 -7 -8 -8 -7 -7 -5 -5 -4 -2 -0 1 4
-4 -4 -5 -5 -6 -6 -6 -6 -6 -6 -7 -8 -8 -8 -8 -7 -7 -7 -7 -8 -10 -9 -9 -9 -9 -8 -7 -8 -8 -7 -7 -7 -8 -8 -7 -7 -7 -5 -4 -4 -2 -2 0
-4 -5 -5 -6 -6 -6 -6 -7 -7 -7 -8 -8 -9 -9 -8 -8 -8 -7 -8 -11 -10 -10 -9 -10 -9 -7 -9 -8 -8 -8 -8 -7 -6 -7 -7 -7 -7 -6 -5 -3 -3 -2 0
-4 -5 -5 -6 -6 -7 -7 -7 -7 -8 -8 -9 -9 -9 -9 -9 -9 -8 -10 -11 -11 -10 -10 -9 -9 -9 -9 -9 -9 -9 -8 -8 -8 -7 -7 -6 -7 -7 -6 -5 -3 -3 -2
-5 -5 -6 -6 -7 -7 -7 -8 -8 -8 -9 -10 -10 -10 -10 -9 -9 -8 -11 -11 -11 -10 -10 -9 -9 -9 -9 -9 -9 -9 -9 -9 -8 -8 -7 -7 -6 -6 -6 -5 -5 -4 -3
-5 -5 -6 -7 -7 -7 -8 -8 -9 -9 -10 -11 -11 -10 -11 -10 -9 -9 -12 -11 -11 -11 -10 -10 -8 -11 -11 -10 -10 -10 -10 -9 -9 -9 -8 -7 -7 -6 -6 -6 -3 -3 -2
-6 -6 -7 -7 -7 -8 -8 -9 -9 -10 -11 -11 -11 -10 -11 -10 -10 -12 -12 -11 -11 -11 -10 -10 -9 -11 -11 -11 -10 -10 -9 -7 -9 -8 -8 -7 -6 -6 -6 -6 -5 -3 -2
-7 -7 -7 -8 -8 -8 -9 -9 -10 -10 -11 -11 -11 -10 -11 -10 -11 -13 -12 -12 -11 -12 -10 -10 -12 -12 -12 -12 -9 -9 -3 -2 -5 -8 -7 -6 -6 -6 -6 -6 -5 -5 -3
-8 -8 -9 -8 -9 -9 -9 -10 -10 -11 -12 -12 -12 -12 -12 -11 -12 -13 -13 -13 -12 -10 -10 -10 -10 -12 -11 -10 -8 -6 -4 -4 -4 -6 -6 -5 -6 -6 -6 -6 -6 -5 -4
-9 -9 -9 -9 -9 -9 -10 -10 -11 -12 -12 -12 -13 -13 -13 -13 -13 -13 -13 -11 -10 -9 -9 -8 -9 -10 -10 -10 -9 -6 -4 -4 -5 -5 -5 -5 -5 -6 -6 -5 -5 -5 -5
-9 -9 -9 -9 -10 -10 -10 -11 -11 -12 -13 -13 -13 -13 -14 -14 -14 -14 -14 -14 -13 -11 -9 -8 -9 -9 -10 -11 -11 -11 -9 -7 -6 -5 -5 -5 -5 -5 -5 -5 -4 -4 -3
-9 -10 -9 -10 -10 -11 -11 -11 -12 -12 -12 -12 -13 -14 -14 -14 -14 -14 -13 -11 -12 -10 -9 -10 -11 -10 -11 -12 -13 -12 -12 -12 -11 -9 -6 -5 -5 -4 -3 -4 -3 -3 -2
-10 -10 -10 -10 -10 -11 -11 -11 -12 -13 -13 -12 -13 -13 -14 -15 -15 -14 -12 -12 -12 -11 -11 -12 -13 -12 -12 -12 -12 -12 -12 -13 -13 -12 -10 -7 -5 -4 -3 -2 -2 -2 -1
-11 -11 -12 -11 -11 -13 -12 -12 -12 -13 -13 -13 -13 -13 -13 -13 -13 -13 -12 -12 -12 -12 -13 -13 -13 -13 -13 -13 -12 -13 -12 -12 -12 -13 -12 -11 -9 -7 -4 -3 -1 -1 0
-12 -12 -12 -12 -12 -13 -13 -12 -13 -13 -13 -13 -13 -13 -13 -13 -13 -13 -13 -13 -13 -13 -13 -14 -14 -14 -13 -13 -13 -14 -13 -12 -12 -12 -12 -11 -10 -9 -7 -5 -2 1 2
-12 -12 -12 -12 -13 -13 -13 -13 -13 -14 -14 -14 -14 -13 -13 -13 -12 -13 -13 -13 -13 -13 -13 -14 -14 -14 -14 -14 -14 -14 -14 -14 -14 -12 -12 -11 -10 -8 -7 -6 -5 -4 -3
-13 -13 -13 -13 -13 -14 -14 -13 -14 -14 -14 -15 -14 -15 -14 -13 -13 -13 -14 -14 -14 -14 -14 -14 -13 -14 -14 -14 -14 -15 -15 -14 -13 -14 -13 -12 -11 -9 -8 -7 -7 -7 -6
-13 -14 -13 -13 -14 -14 -14 -14 -14 -14 -14 -15 -15 -14 -14 -14 -14 -14 -14 -14 -14 -14 -14 -14 -14 -14 -14 -14 -15 -15 -16 -16 -14 -13 -12 -12 -12 -11 -10 -9 -8 -7 -7
-14 -14 -14 -14 -15 -15 -15 -15 -14 -14 -14 -15 -15 -15 -14 -14 -14 -14 -14 -14 -14 -14 -14 -14 -14 -14 -14 -14 -15 -16 -15 -16 -16 -15 -13 -12 -12 -12 -12 -11 -11 -9 -8
-14 -14 -14 -15 -15 -15 -15 -15 -15 -14 -14 -15 -15 -15 -14 -14 -14 -14 -14 -14 -14 -14 -14 -14 -14 -14 -14 -14 -14 -16 -15 -15 -15 -15 -15 -14 -13 -12 -12 -12 -11 -11 -10
-15 -15 -15 -15 -16 -15 -16 -16 -16 -15 -15 -15 -15 -15 -14 -14 -14 -14 -14 -14 -14 -14 -14 -14 -14 -15 -14 -14 -15 -16 -15 -15 -16 -16 -15 -14 -14 -13 -13 -12 -12 -11 -10
-15 -16 -16 -16 -16 -16 -16 -16 -16 -16 -15 -15 -15 -14 -14 -14 -14 -14 -14 -14 -14 -14 -14 -14 -14 -14 -14 -15 -14 -16 -15 -16 -17 -17 -16 -16 -15 -14 -14 -13 -13 -12 -12
Height
1475 1475 1476 1476 1476 1475 1474 1473 1472 1472 1471 1470 1471 1471 1471 1472 1471 1470 1470 1470 1469 1470 1470 1470 1470 1470 1469 1470 1471 1472 1471 1473 1464 1452 1459 1462 1465 1470 1474 1479 1480 1479 1481
1471 1472 1473 1473 1473 1472 1471 1470 1469 1468 1468 1467 1466 1466 1466 1466 1465 1465 1464 1465 1463 1464 1464 1463 1463 1465 1462 1463 1463 1463 1463 1464 1461 1445 1450 1451 1452 1456 1459 1463 1468 1470 1470
1466 1468 1468 1469 1469 1469 1468 1468 1467 1466 1464 1463 1462 1461 1461 1460 1459 1459 1458 1457 1457 1456 1455 1455 1455 1456 1454 1455 1454 1453 1453 1453 1451 1444 1433 1441 1442 1445 1445 1447 1450 1455 1459
1462 1464 1465 1466 1466 1466 1466 1465 1464 1462 1460 1458 1458 1457 1455 1454 1453 1452 1451 1450 1449 1447 1447 1445 1446 1444 1444 1445 1444 1443 1443 1440 1439 1435 1426 1425 1428 1431 1434 1433 1435 1440 1442
1457 1459 1461 1462 1463 1463 1463 1462 1460 1458 1456 1454 1453 1452 1450 1448 1447 1445 1444 1442 1440 1439 1438 1437 1436 1435 1436 1436 1434 1432 1432 1430 1428 1424 1415 1414 1412 1417 1415 1422 1421 1426 1428
1452 1454 1456 1457 1458 1458 1459 1458 1456 1454 1452 1450 1449 1447 1445 1443 1441 1439 1437 1435 1433 1431 1429 1428 1427 1426 1425 1425 1424 1424 1423 1417 1412 1413 1404 1396 1396 1401 1405 1408 1409 1415 1414
1447 1449 1451 1452 1454 1454 1454 1453 1452 1450 1448 1446 1445 1442 1440 1437 1435 1433 1430 1428 1426 1424 1422 1419 1414 1413 1412 1410 1406 1403 1400 1399 1394 1392 1388 1382 1383 1388 1398 1399 1397 1399 1399
1441 1444 1445 1446 1448 1449 1449 1449 1447 1446 1444 1442 1440 1438 1435 1432 1429 1426 1423 1421 1418 1416 1412 1408 1403 1400 1398 1396 1390 1382 1375 1370 1369 1373 1371 1366 1370 1375 1382 1386 1388 1389 1391
1436 1437 1439 1441 1442 1443 1445 1444 1443 1442 1441 1439 1437 1434 1430 1427 1422 1419 1417 1414 1410 1407 1403 1397 1391 1385 1384 1383 1375 1366 1354 1343 1349 1347 1348 1350 1356 1358 1366 1375 1372 1376 1371
1431 1432 1434 1435 1437 1438 1440 1440 1439 1438 1436 1434 1432 1430 1426 1421 1418 1413 1412 1409 1403 1397 1391 1385 1379 1373 1367 1365 1359 1350 1333 1321 1328 1328 1327 1330 1336 1340 1348 1355 1358 1358 1358
1425 1427 1428 1429 1432 1433 1434 1435 1434 1434 1432 1431 1428 1425 1422 1418 1412 1408 1408 1403 1396 1389 1381 1374 1366 1360 1355 1347 1340 1328 1311 1300 1301 1310 1312 1314 1317 1322 1327 1334 1342 1341 1343
1419 1421 1423 1425 1427 1429 1430 1430 1430 1429 1428 1427 1423 1420 1418 1414 1409 1404 1403 1397 1390 1383 1374 1365 1357 1351 1339 1327 1319 1310 1293 1282 1282 1292 1296 1297 1298 1303 1309 1315 1322 1328 1330
1412 1414 1416 1419 1422 1424 1425 1426 1426 1425 1424 1423 1420 1416 1413 1410 1405 1400 1394 1388 1382 1375 1369 1361 1350 1340 1329 1320 1310 1296 1288 1282 1278 1280 1280 1282 1286 1293 1301 1307 1313 1316 1319
1405 1407 1411 1414 1417 1419 1420 1422 1422 1421 1421 1420 1417 1413 1410 1406 1401 1395 1389 1382 1377 1372 1365 1356 1346 1337 1327 1314 1304 1289 1281 1279 1279 1277 1278 1280 1284 1288 1292 1296 1301 1305 1307
1399 1401 1405 1409 1412 1415 1416 1417 1417 1417 1417 1417 1414 1411 1407 1404 1401 1396 1389 1382 1376 1369 1362 1351 1344 1330 1320 1312 1302 1288 1278 1275 1274 1274 1276 1277 1279 1281 1283 1286 1289 1294 1294
1393 1396 1399 1403 1407 1410 1412 1413 1413 1413 1413 1413 1412 1408 1406 1404 1401 1395 1388 1383 1377 1369 1359 1350 1342 1332 1324 1318 1306 1293 1284 1281 1276 1271 1270 1271 1272 1273 1273 1276 1278 1280 1283
1388 1392 1394 1398 1402 1405 1407 1408 1409 1409 1410 1410 1408 1405 1403 1402 1398 1394 1389 1384 1377 1369 1361 1353 1345 1338 1330 1324 1313 1302 1294 1289 1281 1273 1267 1263 1260 1258 1260 1262 1265 1270 1275
1383 1387 1389 1393 1397 1400 1403 1404 1405 1406 1407 1407 1405 1403 1401 1399 1396 1394 1390 1385 1377 1367 1363 1357 1351 1345 1336 1328 1319 1312 1304 1296 1287 1278 1270 1262 1255 1252 1249 1249 1254 1260 1264
1380 1382 1385 1389 1392 1396 1399 1401 1402 1402 1403 1404 1403 1402 1400 1398 1396 1394 1390 1383 1377 1371 1367 1362 1357 1351 1343 1336 1328 1321 1314 1307 1296 1287 1277 1267 1261 1250 1241 1239 1241 1247 1254
1378 1380 1383 1386 1389 1392 1396 1398 1399 1400 1400 1401 1401 1400 1398 1398 1396 1393 1390 1386 1381 1376 1372 1367 1362 1356 1350 1343 1335 1327 1320 1313 1306 1293 1284 1273 1262 1254 1246 1242 1244 1250 1257
1376 1379 1381 1384 1387 1390 1393 1395 1396 1397 1398 1399 1399 1399 1398 1397 1395 1393 1391 1388 1384 1380 1376 1371 1366 1360 1354 1347 1341 1334 1327 1319 1309 1303 1293 1283 1276 1267 1264 1263 1265 1267 1268
1375 1378 1380 1383 1385 1388 1390 1392 1393 1395 1396 1397 1397 1397 1397 1397 1396 1394 1392 1389 1386 1382 1379 1374 1369 1364 1358 1352 1345 1339 1334 1329 1319 1308 1299 1289 1282 1278 1278 1276 1274 1272 1269
1374 1377 1380 1383 1385 1387 1388 1390 1391 1393 1394 1395 1396 1396 1397 1397 1396 1395 1393 1390 1387 1384 1381 1377 1373 1368 1363 1357 1352 1345 1339 1334 1327 1321 1312 1304 1297 1292 1288 1285 1282 1278 1275
1376 1378 1379 1381 1384 1386 1388 1389 1390 1391 1393 1394 1394 1395 1396 1396 1396 1395 1393 1391 1388 1385 1382 1379 1376 1371 1366 1361 1354 1348 1345 1339 1331 1324 1318 1314 1311 1308 1305 1300 1292 1286 1282
1376 1377 1379 1381 1384 1386 1388 1389 1390 1391 1392 1393 1394 1395 1396 1396 1395 1394 1393 1392 1389 1387 1384 1381 1378 1374 1370 1365 1358 1354 1350 1344 1337 1330 1324 1319 1315 1311 1307 1304 1303 1302 1300
1377 1378 1380 1382 1384 1386 1387 1389 1389 1390 1391 1392 1393 1394 1395 1395 1395 1394 1392 1390 1388 1386 1384 1381 1377 1374 1370 1366 1360 1358 1354 1348 1341 1334 1329 1325 1321 1318 1315 1314 1312 1311 1311
Wind_Speed
16 15 13 13 13 13 13 14 14 14 15 15 16 16 16 17 18 19 19 20 22 22 22 23 24 25 27 28 30 33 37 39 46 59 54 53 50 48 45 35 41 37 39
18 17 15 14 13 13 14 14 15 15 15 16 17 17 18 18 19 20 21 22 24 25 24 27 27 27 28 30 32 35 38 40 45 61 58 58 58 54 50 48 46 53 47
22 19 17 15 14 14 14 14 15 16 16 16 18 19 20 20 21 22 24 25 26 28 29 31 30 30 32 33 34 37 40 43 46 53 63 58 59 51 49 52 52 51 52
23 21 18 16 15 14 13 14 15 16 16 17 18 20 21 23 24 25 26 28 28 29 30 31 34 34 36 36 38 41 43 47 48 54 62 58 53 54 50 52 51 51 57
23 22 18 17 15 13 13 14 15 16 17 18 20 21 22 24 24 26 27 27 28 29 30 33 35 36 36 36 40 43 44 47 46 47 57 54 55 46 51 48 55 56 56
22 21 19 18 16 15 14 14 15 16 17 18 20 22 22 22 23 24 25 27 28 30 32 35 38 39 41 41 42 45 49 54 56 53 56 55 55 53 47 43 48 42 49
20 20 20 19 17 16 14 14 15 17 18 18 19 20 21 22 24 24 24 25 28 30 34 38 42 44 41 45 47 49 54 56 64 68 65 65 56 52 44 43 42 41 48
18 20 21 20 18 16 15 14 15 16 17 18 19 20 22 22 24 24 24 25 27 30 34 37 42 45 43 44 49 54 59 63 66 68 74 76 66 57 49 46 45 41 43
19 19 21 20 18 16 15 14 14 15 15 17 18 21 23 23 23 23 22 25 28 31 34 38 40 43 43 40 46 55 63 68 60 63 69 73 70 66 54 47 51 47 49
20 19 19 20 19 17 14 14 13 14 15 17 19 20 21 22 21 20 21 25 30 33 36 39 40 38 37 37 43 51 61 68 60 58 61 66 70 68 65 61 44 44 47
18 19 20 21 19 16 15 13 12 13 14 16 19 21 20 21 21 20 20 24 27 32 35 36 36 36 37 38 39 49 67 72 64 56 55 57 60 66 65 65 65 54 42
19 21 22 20 19 17 14 12 11 13 14 15 18 21 22 21 22 20 22 21 24 26 27 31 31 32 33 34 35 42 34 26 46 52 52 53 56 57 59 64 62 67 58
21 22 23 20 18 16 14 11 11 12 13 13 17 22 24 23 24 26 24 23 23 22 22 22 24 26 27 27 26 25 19 19 23 39 44 44 48 49 50 51 54 61 66
20 20 21 21 18 16 13 11 10 11 10 11 14 20 23 23 26 29 27 24 23 18 21 23 29 28 27 26 23 16 12 12 20 30 35 41 42 43 42 44 46 47 49
20 19 21 20 18 15 12 10 9 10 8 10 11 15 20 21 24 22 21 21 24 21 19 25 32 37 40 39 35 30 19 9 11 21 32 37 37 40 43 44 46 42 46
20 21 23 20 18 15 11 8 8 7 7 8 8 9 14 13 17 19 17 17 20 22 26 31 35 38 42 43 45 41 37 29 19 8 16 35 38 41 42 45 46 47 45
21 22 22 21 18 15 10 8 8 6 4 5 7 8 9 12 14 15 15 19 23 24 33 36 39 38 38 39 44 44 43 38 31 21 10 13 24 40 47 38 47 48 45
22 22 22 20 17 13 10 8 7 5 2 3 5 7 8 10 12 14 16 19 27 32 34 36 37 38 38 38 39 42 42 42 40 36 32 22 12 11 19 30 43 42 43
20 20 19 19 17 13 9 8 6 4 1 3 5 4 6 8 11 15 20 27 31 34 34 34 35 35 36 37 38 40 40 40 41 41 40 39 33 28 27 24 23 24 25
13 14 15 17 16 13 10 8 7 4 1 2 5 7 8 7 11 17 22 25 28 31 33 35 35 34 33 34 35 39 41 42 41 41 42 42 44 43 41 39 35 26 19
11 13 15 15 14 11 9 9 7 4 2 1 3 6 7 9 13 16 19 23 25 27 30 32 34 35 35 34 33 36 38 40 41 41 41 40 41 42 39 36 34 33 28
12 16 12 12 12 10 9 9 7 4 1 1 4 5 7 8 11 13 16 19 21 24 26 28 31 34 35 35 35 36 37 36 38 38 39 41 41 38 35 33 31 30 32
12 15 11 10 10 9 9 9 7 5 3 1 4 6 6 7 10 12 15 17 19 21 23 25 27 30 32 33 33 33 34 34 34 32 32 33 35 36 34 34 32 30 29
11 11 9 8 9 9 7 7 6 6 4 3 4 6 6 7 9 11 14 17 20 21 21 20 23 27 30 31 34 36 31 30 32 30 29 28 27 27 29 30 31 30 29
3 6 8 9 11 11 8 7 6 5 5 5 6 6 5 4 5 9 12 15 17 19 20 19 20 22 25 29 29 32 31 27 26 27 26 25 24 25 27 27 26 26 24
4 6 8 10 11 8 7 7 6 5 5 7 8 7 5 1 5 10 13 15 16 16 17 19 19 19 23 27 29 26 29 26 28 27 23 23 22 23 23 22 21 21 20
Wind_Direction
262 263 271 282 293 303 307 308 308 306 302 298 295 292 288 284 283 284 285 283 282 281 281 282 281 283 283 281 278 276 275 274 273 278 276 277 274 267 259 253 249 248 253
258 255 260 273 287 300 307 311 310 309 308 304 300 295 292 290 288 289 287 284 283 283 283 283 283 283 284 284 281 279 278 276 275 278 279 279 278 276 269 260 248 248 251
259 255 260 272 283 294 304 309 313 313 312 308 304 299 295 293 291 291 290 289 287 286 284 283 285 284 282 282 280 279 279 278 276 277 279 277 274 271 272 269 260 250 244
251 249 252 261 272 285 300 310 315 315 313 309 306 303 299 295 293 293 293 291 287 288 288 287 288 289 289 289 287 285 284 280 276 274 274 274 272 269 263 264 264 260 250
242 243 246 254 266 280 296 311 318 317 314 311 309 305 303 299 297 295 293 293 292 291 290 291 291 290 286 279 278 280 281 278 269 263 267 266 264 261 254 252 258 262 260
244 244 244 254 265 278 293 310 317 315 314 312 311 309 307 303 300 297 295 290 289 289 289 288 287 284 282 277 270 266 263 265 264 258 259 257 257 255 253 251 253 252 257
245 242 244 251 261 274 290 307 312 313 314 314 315 315 311 307 306 304 299 295 290 287 287 290 290 292 286 286 285 276 267 258 254 254 253 254 252 250 250 246 242 238 245
244 240 242 249 258 270 286 300 307 311 314 316 322 322 314 313 311 306 302 298 294 293 295 296 296 296 294 285 281 276 271 265 258 252 249 252 252 250 245 245 241 243 249
249 246 244 246 253 265 280 292 301 306 309 315 327 325 320 318 313 309 310 308 307 306 302 302 302 299 294 285 277 273 272 268 262 257 254 252 249 247 243 245 242 241 247
254 251 247 245 251 261 274 286 297 301 308 318 326 326 326 321 320 319 321 317 312 316 316 309 306 299 296 289 282 280 276 271 264 257 254 251 247 244 239 235 237 231 232
257 248 242 243 251 259 269 282 292 295 303 313 323 330 331 336 336 331 329 321 323 321 314 316 314 311 305 299 292 285 277 275 258 252 253 246 242 239 236 235 233 234 232
249 242 241 242 246 252 264 277 286 290 299 311 324 331 338 347 345 343 334 333 333 326 326 330 323 320 317 317 308 299 293 281 252 244 243 244 232 231 231 232 233 232 231
241 247 235 237 239 247 258 269 277 282 296 314 328 335 339 347 353 352 343 344 345 342 349 348 347 335 335 330 312 299 298 300 270 249 239 225 220 225 231 230 233 234 233
242 238 227 231 234 241 252 264 271 273 295 318 330 337 340 350 359 349 348 351 355 353 1 12 21 18 10 359 346 321 287 268 257 247 236 229 229 230 228 230 230 232 235
238 225 223 226 230 235 247 259 266 269 295 316 330 336 343 353 357 350 353 359 1 11 7 21 24 26 28 23 19 21 5 323 259 228 232 233 233 233 233 232 232 225 223
230 219 216 220 224 234 239 246 254 264 277 304 327 349 340 356 354 1 8 18 32 27 30 32 30 30 29 26 25 29 29 20 5 308 243 233 236 240 237 229 227 217 221
221 217 211 215 223 226 227 229 237 249 277 310 324 338 0 3 6 16 30 36 40 38 42 39 37 35 30 30 29 31 31 27 30 30 28 246 235 238 238 235 217 219 222
208 213 213 214 221 206 214 223 225 231 265 344 339 347 360 8 20 36 43 45 46 46 42 39 36 34 33 35 33 30 30 31 35 38 41 51 85 152 191 216 223 221 217
212 208 207 214 202 200 200 211 215 228 303 23 8 12 37 35 49 54 51 48 45 43 41 38 35 33 33 33 36 35 34 31 31 37 42 49 59 76 91 102 140 186 203
209 213 213 199 193 191 190 200 207 214 248 41 23 47 57 75 68 58 52 48 45 41 39 36 34 32 31 31 31 35 29 30 34 34 38 43 51 56 63 73 83 101 140
205 185 199 195 188 182 190 192 202 207 229 58 66 59 74 77 66 55 48 43 42 40 36 34 31 29 29 29 29 30 29 24 26 30 37 41 43 51 56 61 69 73 82
185 179 195 188 176 186 193 187 193 203 217 43 89 104 100 79 65 54 46 42 36 32 29 25 26 27 27 29 29 27 25 20 22 24 28 33 39 44 47 52 56 59 60
177 176 180 170 170 184 192 187 187 192 203 173 119 123 113 82 65 51 43 35 28 25 23 25 26 26 25 25 32 30 21 12 13 21 29 32 34 35 41 45 50 51 53
172 174 179 177 180 190 189 190 189 187 191 188 153 137 112 88 64 48 32 22 18 15 16 16 15 17 19 21 24 26 23 11 6 18 24 30 34 38 42 44 46 48 47
169 174 180 180 178 188 201 201 194 195 190 186 173 157 133 98 48 11 5 5 6 8 10 8 9 13 17 18 28 26 15 14 12 12 21 25 28 34 37 39 42 46 50
159 174 177 178 184 194 195 197 204 203 194 185 183 183 184 192 346 349 349 350 352 357 3 4 2 6 10 13 18 29 15 17 16 14 18 24 27 29 34 37 39 41 43